IRIDIUM 50 [-]

Last updated on Sept. 17, 2018, 4:46 p.m. UTC

1 25172U 98010D   18259.93396582  .02369780 -15928-5  83059-3 0  9999
2 25172  86.7080 158.7557 0241783 131.2358 231.0037 15.83466332 77386

Satellite is not in orbit.